Location: Caltech
(34.1382°N, 118.1253°W)
Time: 07:43:51
(UTC-08:00)

Tiros 1 despin weight - Visible Passes

Search period start: 19 December 2014 00:00
Search period end: 29 December 2014 00:00
Orbit: 600 x 649 km, 48.2° (Epoch: 18 December)

Date Brightness Start Highest point End Pass type
(mag) Time Alt. Az. Time Alt. Az. Time Alt. Az.
21 Dec ? 17:24:01 10° WSW 17:25:21 11° SW 17:26:40 10° SW visible
23 Dec ? 06:07:38 10° SE 06:08:31 11° SE 06:09:24 10° ESE visible
24 Dec ? 06:23:18 10° S 06:26:56 25° SE 06:30:34 10° ENE visible
26 Dec ? 05:19:56 10° S 05:22:53 17° SE 05:25:50 10° E visible
27 Dec ? 05:37:12 10° SSW 05:41:22 39° SE 05:45:31 10° ENE visible
28 Dec ? 04:17:12 10° SSE 04:18:50 12° SE 04:20:28 10° ESE visible
28 Dec ? 05:55:30 10° SW 06:00:00 86° SE 06:04:27 10° NE visible
